Location: Buch
(50.1863°N, 11.0141°E)
Time: 13:01:28
(UTC+00:00)

Cosmos 2263 Rocket - Pass Details

Date: 18 January 2020
Orbit: 823 x 849 km, 71.0° (Epoch: 20 February)

Event Time Altitude Azimuth Distance (km) Brightness Sun altitude
Exits shadow 06:20:39 - 324° (NW) 2,953 4.5 -7.4°
Reaches altitude 10° 06:22:00 10° 321° (NW) 2,459 4.1 -7.2°
Maximum altitude 06:27:18 44° 251° (WSW) 1,151 2.6 -6.5°
Drops below altitude 10° 06:32:37 10° 180° (S) 2,459 5.0 -5.7°
Sets 06:35:09 0° 174° (S) 3,393 5.8 -5.3°
